CSZ9073 ZGSZ-RCTP

Flight info

Callsign CSZ9073
Flight time 1h 16m
Altitude 33100
Route GUBLO R200 ANPOG A1 MKG W6 TNN
Aircraft A321/M-SDE1FGHILORVWXY/HB1

Departure

Time 2026-04-15 10:47
Airport Shenzhen Bao'an International Airport (ZGSZ)

Arrival

Time 2026-04-15 12:03
Airport Taiwan Taoyuan International Airport (RCTP)
Time Latitude Longitude Altitude Speed Heading
2026-04-15 10:36 22.63332 113.80827 22 ft 0 kts 334°
2026-04-15 10:38 22.63320 113.80834 22 ft 2 kts 333°
2026-04-15 10:38 22.63306 113.80841 22 ft 2 kts 334°
2026-04-15 10:39 22.63292 113.80848 22 ft 2 kts 333°
2026-04-15 10:39 22.63278 113.80852 22 ft 2 kts 13°
2026-04-15 10:39 22.63265 113.80844 22 ft 2 kts 49°
2026-04-15 10:39 22.63260 113.80838 22 ft 1 kts 67°
2026-04-15 10:40 22.63258 113.80833 22 ft 0 kts 62°
2026-04-15 10:42 22.63282 113.80882 22 ft 15 kts 61°
2026-04-15 10:42 22.63340 113.80985 22 ft 17 kts 50°
2026-04-15 10:42 22.63466 113.80990 22 ft 26 kts 333°
2026-04-15 10:43 22.63635 113.80901 22 ft 27 kts 335°
2026-04-15 10:43 22.63797 113.80813 22 ft 26 kts 336°
2026-04-15 10:43 22.63958 113.80733 22 ft 25 kts 333°
2026-04-15 10:43 22.64110 113.80650 22 ft 24 kts 334°
2026-04-15 10:44 22.64257 113.80566 22 ft 24 kts 331°
2026-04-15 10:44 22.64401 113.80482 22 ft 23 kts 331°
2026-04-15 10:44 22.64543 113.80402 22 ft 23 kts 335°
2026-04-15 10:44 22.64688 113.80332 22 ft 23 kts 339°
2026-04-15 10:45 22.64830 113.80266 22 ft 22 kts 333°
2026-04-15 10:45 22.64962 113.80182 22 ft 22 kts 329°
2026-04-15 10:45 22.65099 113.80150 22 ft 21 kts 36°
2026-04-15 10:45 22.65151 113.80286 22 ft 20 kts 74°
2026-04-15 10:46 22.65136 113.80407 22 ft 23 kts 146°
2026-04-15 10:46 22.64881 113.80538 22 ft 72 kts 155°
2026-04-15 10:46 22.64218 113.80898 23 ft 140 kts 154°
2026-04-15 10:46 22.63189 113.81462 131 ft 184 kts 154°
2026-04-15 10:47 22.62157 113.82009 1203 ft 162 kts 157°
2026-04-15 10:47 22.61141 113.82555 1795 ft 171 kts 156°
2026-04-15 10:47 22.60041 113.83145 2204 ft 184 kts 156°
2026-04-15 10:47 22.58842 113.83783 2541 ft 201 kts 156°
2026-04-15 10:48 22.57535 113.84473 2904 ft 220 kts 156°
2026-04-15 10:48 22.56082 113.85237 2970 ft 241 kts 156°
2026-04-15 10:48 22.54595 113.86022 3015 ft 243 kts 156°
2026-04-15 10:48 22.53039 113.86844 3414 ft 248 kts 156°
2026-04-15 10:49 22.51545 113.87803 4219 ft 253 kts 138°
2026-04-15 10:49 22.50600 113.89417 5059 ft 257 kts 108°
2026-04-15 10:49 22.50462 113.91366 5654 ft 270 kts 79°
2026-04-15 10:49 22.51166 113.93304 6139 ft 285 kts 62°
2026-04-15 10:50 22.52051 113.95194 6964 ft 285 kts 64°
2026-04-15 10:50 22.52993 113.96924 7866 ft 280 kts 46°
2026-04-15 10:50 22.54555 113.98032 8618 ft 277 kts 17°
2026-04-15 10:50 22.56449 113.98634 9168 ft 287 kts 13°
2026-04-15 10:51 22.58370 113.99208 9771 ft 295 kts 14°
2026-04-15 10:51 22.60243 113.99813 10440 ft 299 kts 15°
2026-04-15 10:51 22.62291 114.00508 10816 ft 316 kts 16°
2026-04-15 10:51 22.64454 114.01261 11133 ft 333 kts 17°
2026-04-15 10:52 22.66722 114.02066 11441 ft 351 kts 19°
2026-04-15 10:52 22.68917 114.03361 11717 ft 370 kts 38°
2026-04-15 10:52 22.70632 114.05522 12099 ft 386 kts 59°
2026-04-15 10:52 22.71513 114.08298 12824 ft 391 kts 80°
2026-04-15 10:53 22.71836 114.11230 13639 ft 392 kts 83°
2026-04-15 10:53 22.72120 114.14183 14288 ft 396 kts 83°
2026-04-15 10:53 22.72408 114.17168 14926 ft 400 kts 83°
2026-04-15 10:53 22.72707 114.20182 15568 ft 403 kts 82°
2026-04-15 10:54 22.73014 114.23217 16193 ft 406 kts 82°
2026-04-15 10:54 22.73328 114.26282 16801 ft 410 kts 82°
2026-04-15 10:54 22.73647 114.29390 17396 ft 413 kts 82°
2026-04-15 10:54 22.73968 114.32503 17972 ft 416 kts 82°
2026-04-15 10:55 22.74291 114.35632 18533 ft 419 kts 82°
2026-04-15 10:55 22.74616 114.38788 19081 ft 422 kts 82°
2026-04-15 10:55 22.74943 114.41963 19614 ft 425 kts 82°
2026-04-15 10:55 22.75272 114.45156 20139 ft 428 kts 82°
2026-04-15 10:56 22.75601 114.48371 20657 ft 430 kts 82°
2026-04-15 10:56 22.75933 114.51633 21167 ft 433 kts 82°
2026-04-15 10:56 22.76263 114.54887 21657 ft 436 kts 82°
2026-04-15 10:56 22.76595 114.58154 22130 ft 438 kts 82°
2026-04-15 10:57 22.76930 114.61444 22590 ft 441 kts 82°
2026-04-15 10:57 22.77607 114.68053 23468 ft 446 kts 82°
2026-04-15 10:57 22.77946 114.71389 23888 ft 448 kts 82°
2026-04-15 10:58 22.78287 114.74755 24301 ft 451 kts 82°
2026-04-15 10:58 22.78636 114.78154 24705 ft 453 kts 82°
2026-04-15 10:58 22.78990 114.81551 25096 ft 455 kts 82°
2026-04-15 10:58 22.79350 114.84967 25476 ft 458 kts 82°
2026-04-15 10:59 22.79713 114.88401 25847 ft 460 kts 82°
2026-04-15 10:59 22.80078 114.91854 26209 ft 462 kts 82°
2026-04-15 10:59 22.80445 114.95327 26565 ft 464 kts 82°
2026-04-15 10:59 22.80815 114.98837 26912 ft 466 kts 82°
2026-04-15 11:00 22.81184 115.02340 27268 ft 468 kts 82°
2026-04-15 11:00 22.81552 115.05839 27709 ft 467 kts 82°
2026-04-15 11:00 22.81916 115.09317 28244 ft 463 kts 82°
2026-04-15 11:00 22.82277 115.12758 28760 ft 460 kts 82°
2026-04-15 11:01 22.82635 115.16176 29233 ft 458 kts 82°
2026-04-15 11:01 22.82990 115.19579 29677 ft 456 kts 82°
2026-04-15 11:01 22.83346 115.22993 30103 ft 454 kts 82°
2026-04-15 11:01 22.83697 115.26373 30491 ft 452 kts 83°
2026-04-15 11:02 22.84046 115.29742 30852 ft 452 kts 83°
2026-04-15 11:02 22.84394 115.33110 31199 ft 451 kts 83°
2026-04-15 11:02 22.84740 115.36465 31540 ft 450 kts 83°
2026-04-15 11:02 22.85085 115.39815 31874 ft 449 kts 83°
2026-04-15 11:03 22.85429 115.43163 32202 ft 448 kts 83°
2026-04-15 11:03 22.85774 115.46523 32523 ft 447 kts 83°
2026-04-15 11:03 22.86116 115.49859 32805 ft 447 kts 83°
2026-04-15 11:03 22.86457 115.53193 32822 ft 447 kts 83°
2026-04-15 11:04 22.87136 115.59854 32830 ft 446 kts 83°
2026-04-15 11:04 22.87815 115.66524 32847 ft 446 kts 83°
2026-04-15 11:05 22.88492 115.73204 32869 ft 446 kts 83°
2026-04-15 11:05 22.89169 115.79861 32879 ft 446 kts 83°
2026-04-15 11:06 22.89839 115.86517 32883 ft 446 kts 83°
2026-04-15 11:06 22.90526 115.93206 32884 ft 446 kts 83°
2026-04-15 11:07 22.91229 115.99870 32884 ft 447 kts 83°
2026-04-15 11:07 22.91918 116.06540 32884 ft 447 kts 83°
2026-04-15 11:08 22.92600 116.13211 32884 ft 447 kts 83°
2026-04-15 11:08 22.93290 116.19909 32884 ft 447 kts 83°
2026-04-15 11:09 22.93980 116.26587 32884 ft 447 kts 83°
2026-04-15 11:09 22.94664 116.33266 32884 ft 448 kts 83°
2026-04-15 11:10 22.95128 116.40001 32884 ft 448 kts 86°
2026-04-15 11:10 22.95430 116.46723 32884 ft 448 kts 86°
2026-04-15 11:11 22.95732 116.53446 32884 ft 448 kts 86°
2026-04-15 11:11 22.96037 116.60170 32884 ft 448 kts 86°
2026-04-15 11:12 22.96343 116.66921 32884 ft 448 kts 86°
2026-04-15 11:12 22.96644 116.73648 32884 ft 449 kts 86°
2026-04-15 11:13 22.96944 116.80379 32884 ft 449 kts 86°
2026-04-15 11:13 22.97243 116.87132 32884 ft 449 kts 86°
2026-04-15 11:14 22.97540 116.93860 32884 ft 447 kts 87°
2026-04-15 11:14 22.97835 117.00562 32884 ft 446 kts 87°
2026-04-15 11:15 22.98125 117.07266 32883 ft 447 kts 88°
2026-04-15 11:15 22.98413 117.14021 32883 ft 450 kts 88°
2026-04-15 11:16 22.98695 117.20777 32884 ft 450 kts 88°
2026-04-15 11:16 22.98980 117.27535 32884 ft 450 kts 88°
2026-04-15 11:17 22.99264 117.34321 32884 ft 450 kts 88°
2026-04-15 11:17 22.99462 117.41080 32879 ft 450 kts 93°
2026-04-15 11:18 22.98432 117.47708 32881 ft 448 kts 108°
2026-04-15 11:18 22.95889 117.53808 32881 ft 446 kts 122°
2026-04-15 11:19 22.92009 117.59094 32884 ft 444 kts 133°
2026-04-15 11:19 22.87771 117.63960 32884 ft 442 kts 133°
2026-04-15 11:20 22.83543 117.68818 32884 ft 442 kts 134°
2026-04-15 11:20 22.79305 117.73705 32884 ft 442 kts 134°
2026-04-15 11:21 22.75080 117.78567 32884 ft 442 kts 134°
2026-04-15 11:21 22.70859 117.83413 32884 ft 442 kts 134°
2026-04-15 11:22 22.66887 117.88461 32881 ft 443 kts 122°
2026-04-15 11:22 22.65523 117.91456 32884 ft 444 kts 111°
2026-04-15 11:22 22.64730 117.94675 32884 ft 446 kts 100°
2026-04-15 11:23 22.64532 117.98011 32885 ft 448 kts 89°
2026-04-15 11:23 22.64943 118.01346 32881 ft 451 kts 78°
2026-04-15 11:23 22.65964 118.04560 32873 ft 454 kts 67°
2026-04-15 11:23 22.67516 118.07530 32873 ft 456 kts 60°
2026-04-15 11:24 22.70990 118.13295 32862 ft 456 kts 58°
2026-04-15 11:24 22.74391 118.18907 32721 ft 455 kts 59°
2026-04-15 11:25 22.76123 118.21786 32597 ft 455 kts 59°
2026-04-15 11:25 22.77768 118.24528 32478 ft 455 kts 59°
2026-04-15 11:25 22.79481 118.27391 32354 ft 455 kts 59°
2026-04-15 11:25 22.81195 118.30257 32230 ft 455 kts 59°
2026-04-15 11:26 22.82920 118.33144 32105 ft 455 kts 59°
2026-04-15 11:26 22.84642 118.36027 31981 ft 455 kts 59°
2026-04-15 11:26 22.86358 118.38901 31857 ft 455 kts 59°
2026-04-15 11:26 22.88077 118.41781 31732 ft 455 kts 59°
2026-04-15 11:27 22.89785 118.44646 31608 ft 455 kts 59°
2026-04-15 11:27 22.91507 118.47534 31484 ft 456 kts 58°
2026-04-15 11:27 22.93223 118.50416 31360 ft 456 kts 58°
2026-04-15 11:27 22.94933 118.53290 31237 ft 456 kts 58°
2026-04-15 11:28 22.96421 118.55803 31128 ft 456 kts 58°
2026-04-15 11:28 22.98164 118.58769 31003 ft 457 kts 58°
2026-04-15 11:28 23.01567 118.64560 30912 ft 457 kts 58°
2026-04-15 11:29 23.04975 118.70372 30904 ft 458 kts 59°
2026-04-15 11:29 23.08394 118.76199 30899 ft 458 kts 58°
2026-04-15 11:30 23.11817 118.82008 30896 ft 458 kts 58°
2026-04-15 11:30 23.15267 118.87831 30896 ft 460 kts 59°
2026-04-15 11:31 23.18725 118.93705 30895 ft 461 kts 59°
2026-04-15 11:31 23.22176 118.99588 30895 ft 464 kts 59°
2026-04-15 11:32 23.25556 119.05364 30883 ft 466 kts 59°
2026-04-15 11:32 23.27312 119.08369 30616 ft 467 kts 59°
2026-04-15 11:32 23.29057 119.11357 30366 ft 467 kts 59°
2026-04-15 11:33 23.30813 119.14364 30116 ft 467 kts 59°
2026-04-15 11:33 23.32551 119.17342 29868 ft 468 kts 59°
2026-04-15 11:33 23.34306 119.20349 29617 ft 468 kts 59°
2026-04-15 11:33 23.36058 119.23353 29369 ft 468 kts 59°
2026-04-15 11:34 23.37811 119.26360 29120 ft 469 kts 59°
2026-04-15 11:34 23.39571 119.29382 28870 ft 469 kts 59°
2026-04-15 11:34 23.41323 119.32391 28620 ft 470 kts 59°
2026-04-15 11:34 23.43093 119.35432 28369 ft 470 kts 59°
2026-04-15 11:35 23.44833 119.38421 28119 ft 471 kts 59°
2026-04-15 11:35 23.46588 119.41439 27870 ft 471 kts 59°
2026-04-15 11:35 23.48221 119.44249 27637 ft 471 kts 59°
2026-04-15 11:35 23.50072 119.47436 27374 ft 472 kts 59°
2026-04-15 11:36 23.51779 119.50378 27131 ft 472 kts 59°
2026-04-15 11:36 23.53329 119.53053 26915 ft 471 kts 59°
2026-04-15 11:36 23.55169 119.56283 26886 ft 470 kts 62°
2026-04-15 11:36 23.56404 119.59464 26895 ft 468 kts 72°
2026-04-15 11:37 23.57284 119.62836 26761 ft 461 kts 78°
2026-04-15 11:37 23.57970 119.66219 26484 ft 455 kts 80°
2026-04-15 11:37 23.58619 119.69632 26205 ft 456 kts 80°
2026-04-15 11:37 23.59281 119.73065 25929 ft 457 kts 80°
2026-04-15 11:38 23.59959 119.76487 25652 ft 457 kts 79°
2026-04-15 11:38 23.60656 119.79923 25374 ft 455 kts 79°
2026-04-15 11:38 23.61332 119.83215 25100 ft 453 kts 79°
2026-04-15 11:38 23.62036 119.86624 24824 ft 451 kts 79°
2026-04-15 11:39 23.62730 119.89976 24550 ft 449 kts 79°
2026-04-15 11:39 23.63417 119.93290 24276 ft 447 kts 79°
2026-04-15 11:39 23.64093 119.96553 24004 ft 445 kts 79°
2026-04-15 11:39 23.64735 119.99654 23745 ft 443 kts 79°
2026-04-15 11:40 23.65279 120.02322 23519 ft 442 kts 79°
2026-04-15 11:40 23.65856 120.05200 23276 ft 440 kts 79°
2026-04-15 11:40 23.66409 120.07936 23043 ft 438 kts 79°
2026-04-15 11:40 23.67303 120.12315 22671 ft 436 kts 79°
2026-04-15 11:41 23.67967 120.15552 22396 ft 434 kts 79°
2026-04-15 11:41 23.68636 120.18803 22122 ft 432 kts 79°
2026-04-15 11:41 23.69266 120.21754 21865 ft 431 kts 76°
2026-04-15 11:41 23.70567 120.24921 21556 ft 433 kts 58°
2026-04-15 11:42 23.72574 120.27393 21284 ft 435 kts 41°
2026-04-15 11:42 23.74896 120.29004 21036 ft 436 kts 26°
2026-04-15 11:42 23.77047 120.29885 20853 ft 436 kts 19°
2026-04-15 11:42 23.80545 120.31081 20464 ft 434 kts 18°
2026-04-15 11:43 23.83470 120.32050 20134 ft 431 kts 18°
2026-04-15 11:43 23.86354 120.33013 19807 ft 429 kts 18°
2026-04-15 11:43 23.89241 120.33989 19479 ft 427 kts 18°
2026-04-15 11:43 23.92100 120.34965 19149 ft 424 kts 19°
2026-04-15 11:44 23.94921 120.35934 18824 ft 422 kts 19°
2026-04-15 11:44 23.97723 120.36901 18497 ft 420 kts 19°
2026-04-15 11:44 24.00512 120.37865 18172 ft 418 kts 19°
2026-04-15 11:44 24.03249 120.38814 17846 ft 416 kts 19°
2026-04-15 11:45 24.06000 120.39768 17519 ft 414 kts 19°
2026-04-15 11:45 24.08747 120.40722 17190 ft 411 kts 19°
2026-04-15 11:45 24.11459 120.41662 16863 ft 409 kts 19°
2026-04-15 11:45 24.14156 120.42594 16538 ft 407 kts 19°
2026-04-15 11:46 24.16837 120.43521 16213 ft 405 kts 19°
2026-04-15 11:46 24.19519 120.44450 15889 ft 403 kts 19°
2026-04-15 11:46 24.22180 120.45373 15562 ft 401 kts 19°
2026-04-15 11:46 24.24840 120.46298 15235 ft 399 kts 19°
2026-04-15 11:47 24.27500 120.47224 14951 ft 396 kts 19°
2026-04-15 11:47 24.29611 120.47959 14945 ft 397 kts 19°
2026-04-15 11:47 24.31253 120.48532 14941 ft 397 kts 19°
2026-04-15 11:47 24.32869 120.49096 14933 ft 387 kts 19°
2026-04-15 11:48 24.34512 120.49669 14873 ft 381 kts 19°
2026-04-15 11:48 24.39822 120.51528 14335 ft 377 kts 19°
2026-04-15 11:48 24.42312 120.52399 14083 ft 376 kts 19°
2026-04-15 11:48 24.44809 120.53269 13831 ft 374 kts 19°
2026-04-15 11:49 24.47273 120.54128 13581 ft 373 kts 19°
2026-04-15 11:49 24.49418 120.54876 13362 ft 372 kts 19°
2026-04-15 11:49 24.50986 120.55423 13201 ft 371 kts 19°
2026-04-15 11:49 24.53220 120.56204 12973 ft 369 kts 19°
2026-04-15 11:50 24.56770 120.57449 12609 ft 367 kts 19°
2026-04-15 11:50 24.59193 120.58297 12358 ft 366 kts 19°
2026-04-15 11:50 24.61376 120.59061 12131 ft 365 kts 19°
2026-04-15 11:50 24.63933 120.59956 11859 ft 355 kts 19°
2026-04-15 11:51 24.66247 120.60839 11602 ft 344 kts 25°
2026-04-15 11:51 24.68172 120.62017 11372 ft 333 kts 36°
2026-04-15 11:51 24.69811 120.63462 11146 ft 325 kts 42°
2026-04-15 11:51 24.71276 120.64908 11029 ft 313 kts 43°
2026-04-15 11:52 24.72788 120.66429 10806 ft 306 kts 44°
2026-04-15 11:52 24.74669 120.68319 10472 ft 298 kts 43°
2026-04-15 11:52 24.76012 120.69654 10232 ft 292 kts 43°
2026-04-15 11:52 24.77691 120.71315 9926 ft 288 kts 43°
2026-04-15 11:53 24.79197 120.72801 9654 ft 287 kts 43°
2026-04-15 11:53 24.80480 120.74064 9419 ft 286 kts 43°
2026-04-15 11:53 24.82150 120.75706 9109 ft 285 kts 43°
2026-04-15 11:53 24.83388 120.76925 9033 ft 283 kts 43°
2026-04-15 11:54 24.85059 120.78570 8742 ft 282 kts 43°
2026-04-15 11:54 24.86489 120.79980 8448 ft 278 kts 43°
2026-04-15 11:54 24.87928 120.81399 8144 ft 274 kts 43°
2026-04-15 11:54 24.89211 120.82663 7866 ft 270 kts 43°
2026-04-15 11:55 24.90698 120.84144 7540 ft 266 kts 46°
2026-04-15 11:55 24.91621 120.85670 7249 ft 261 kts 71°
2026-04-15 11:55 24.91834 120.86794 7069 ft 259 kts 88°
2026-04-15 11:55 24.91706 120.89649 6563 ft 257 kts 94°
2026-04-15 11:56 24.91577 120.91536 6224 ft 256 kts 93°
2026-04-15 11:56 24.91457 120.93533 5864 ft 255 kts 93°
2026-04-15 11:56 24.91351 120.95477 5513 ft 254 kts 92°
2026-04-15 11:56 24.91292 120.96612 5306 ft 254 kts 92°
2026-04-15 11:57 24.91155 120.99256 4919 ft 250 kts 92°
2026-04-15 11:57 24.91027 121.02686 4344 ft 248 kts 82°
2026-04-15 11:57 24.91804 121.04546 4017 ft 243 kts 50°
2026-04-15 11:58 24.92935 121.05916 3700 ft 242 kts 47°
2026-04-15 11:58 24.93793 121.06942 3419 ft 244 kts 47°
2026-04-15 11:58 24.94867 121.08250 3086 ft 241 kts 47°
2026-04-15 11:58 24.95540 121.09057 3001 ft 228 kts 47°
2026-04-15 11:59 24.96189 121.09844 2968 ft 216 kts 48°
2026-04-15 11:59 24.96831 121.10632 2862 ft 206 kts 48°
2026-04-15 11:59 24.98027 121.12126 2531 ft 188 kts 49°
2026-04-15 11:59 24.99439 121.13910 2119 ft 180 kts 49°
2026-04-15 12:00 25.00297 121.14999 1887 ft 166 kts 49°
2026-04-15 12:00 25.00903 121.15769 1694 ft 157 kts 49°
2026-04-15 12:00 25.01683 121.16759 1436 ft 139 kts 48°
2026-04-15 12:00 25.02258 121.17489 1283 ft 139 kts 48°
2026-04-15 12:01 25.02841 121.18228 1120 ft 139 kts 48°
2026-04-15 12:01 25.03337 121.18858 980 ft 139 kts 48°
2026-04-15 12:01 25.03788 121.19431 852 ft 138 kts 48°
2026-04-15 12:01 25.04237 121.20004 723 ft 138 kts 48°
2026-04-15 12:02 25.04725 121.20624 582 ft 138 kts 48°
2026-04-15 12:02 25.05182 121.21205 450 ft 138 kts 48°
2026-04-15 12:02 25.05657 121.21793 304 ft 138 kts 47°
2026-04-15 12:02 25.06124 121.22375 163 ft 137 kts 49°
2026-04-15 12:03 25.06569 121.22968 116 ft 121 kts 49°
2026-04-15 12:03 25.06908 121.23391 115 ft 85 kts 47°
2026-04-15 12:03 25.07118 121.23650 115 ft 53 kts 44°
2026-04-15 12:03 25.07268 121.23829 115 ft 35 kts 47°
2026-04-15 12:04 25.07408 121.24017 115 ft 33 kts 52°
2026-04-15 12:04 25.07565 121.24165 115 ft 31 kts 28°
2026-04-15 12:04 25.07653 121.24208 115 ft 15 kts
2026-04-15 12:04 25.07715 121.24210 115 ft 0 kts 353°
2026-04-15 12:05 25.07742 121.24202 115 ft 13 kts 335°
2026-04-15 12:05 25.07747 121.24141 115 ft 10 kts 227°
2026-04-15 12:06 25.07700 121.24089 115 ft 11 kts 221°
2026-04-15 12:06 25.07645 121.24022 115 ft 13 kts 230°
2026-04-15 12:06 25.07590 121.23948 115 ft 14 kts 230°
2026-04-15 12:06 25.07533 121.23872 115 ft 15 kts 230°
2026-04-15 12:07 25.07471 121.23794 115 ft 12 kts 226°
2026-04-15 12:07 25.07419 121.23705 115 ft 13 kts 268°
2026-04-15 12:07 25.07449 121.23655 115 ft 9 kts 312°
2026-04-15 12:07 25.07483 121.23617 115 ft 0 kts 322°